Torna al catalogo

STARLINK-37607

AttivoComunicazioniVLEO
NORAD 69514·PAYLOAD·🇺🇸 United States

Lanciato Jun 12, 2026 da Cape Canaveral Space Force Station

Loading…

Prossimi Passaggi (prossime 24 ore)

TLE

AggiornatoSource: CelesTrak SupGP

Epoca: Sep 14, 2026, 21:35 UTC

1 69514C 26133G   26257.89979167  .00055299  00000+0  16339-2 0  2578
2 69514  53.1560 256.0180 0001344  93.5649 225.5876 15.34360748    14

Traccia STARLINK-37607 in tempo reale con AllMySat

Download on the App Store